UAE196A MMMX-LEBL

Flight info

Callsign UAE196A
Flight time N/A
Altitude 33000
Route NOXOS2B NOXOS UT106 COFRE UM580 IRDOV M580 MINOW DCT LAL/N0494F350 DCT HOBEE M202 LENDS DCT UKOKA/M084F350 DCT BEXUM M204 LUNKR DCT 38N060W 42N050W 4330N04000W/M084F370 4330N03000W 43N020W DCT BANAL/N0485F370 DCT RIVRO/N0495F310 DCT BARDI/N0492F320 M191 DIPOL DCT RBO DCT PINAR DCT SEGRE DCT BRITO DCT PISUS/N0496F300 DCT PONEN T600 CASPE
Aircraft B77W/H-SDE1E2E3FGHIJ2J3J4J5M1RWXY/LB1D1

Departure

Time N/A
Airport Mexico City Benito Juárez International Airport (MMMX)

Arrival

Time 2026-05-06 18:41
Airport Josep Tarradellas Barcelona-El Prat Airport (LEBL)
Time Latitude Longitude Altitude Speed Heading
2026-05-06 17:46 38.78712 -0.36257 32336 ft 496 kts 360°
2026-05-06 17:47 38.83083 -0.36260 32516 ft 467 kts 359°
2026-05-06 17:47 38.86269 -0.36278 32800 ft 446 kts 359°
2026-05-06 17:47 38.89329 -0.36301 32951 ft 434 kts 359°
2026-05-06 17:48 38.91004 -0.36315 32943 ft 430 kts 359°
2026-05-06 17:50 38.94686 -0.36348 32970 ft 419 kts 359°
2026-05-06 17:51 38.96672 -0.36367 32987 ft 413 kts 359°
2026-05-06 17:58 38.98041 -0.36349 33293 ft 415 kts 353°
2026-05-06 17:58 39.00908 -0.36017 33108 ft 425 kts
2026-05-06 17:58 39.06748 -0.34637 32964 ft 427 kts
2026-05-06 17:59 39.12568 -0.33172 32924 ft 424 kts
2026-05-06 17:59 39.18334 -0.31747 32933 ft 419 kts
2026-05-06 18:00 39.24042 -0.30364 32923 ft 415 kts
2026-05-06 18:00 39.29699 -0.29001 32923 ft 411 kts
2026-05-06 18:01 39.35331 -0.27646 32528 ft 413 kts
2026-05-06 18:01 39.38184 -0.26969 32069 ft 430 kts
2026-05-06 18:01 39.41182 -0.26258 31985 ft 444 kts
2026-05-06 18:02 39.44269 -0.25521 31966 ft 456 kts
2026-05-06 18:02 39.47421 -0.24760 31952 ft 462 kts
2026-05-06 18:02 39.53752 -0.23209 31938 ft 462 kts
2026-05-06 18:03 39.60034 -0.21667 31934 ft 460 kts
2026-05-06 18:03 39.66341 -0.20128 31981 ft 463 kts
2026-05-06 18:04 39.72684 -0.18587 32061 ft 470 kts
2026-05-06 18:04 39.75910 -0.17802 32222 ft 473 kts
2026-05-06 18:04 39.79152 -0.17009 32511 ft 474 kts
2026-05-06 18:05 39.82401 -0.16213 32816 ft 475 kts
2026-05-06 18:05 39.85671 -0.15633 32901 ft 471 kts 357°
2026-05-06 18:05 39.92188 -0.14424 32938 ft 476 kts
2026-05-06 18:06 39.98683 -0.12798 32952 ft 473 kts
2026-05-06 18:06 40.05126 -0.11136 32969 ft 471 kts
2026-05-06 18:07 40.11566 -0.09500 32960 ft 470 kts
2026-05-06 18:07 40.17948 -0.07896 32970 ft 471 kts
2026-05-06 18:08 40.24406 -0.06274 32987 ft 472 kts
2026-05-06 18:08 40.30882 -0.04644 32975 ft 474 kts
2026-05-06 18:09 40.37326 -0.03016 32977 ft 474 kts
2026-05-06 18:09 40.43814 -0.01372 32965 ft 475 kts
2026-05-06 18:10 40.50303 0.00274 32932 ft 474 kts
2026-05-06 18:10 40.55680 0.01643 32933 ft 473 kts
2026-05-06 18:11 40.62121 0.03284 32944 ft 471 kts
2026-05-06 18:11 40.68558 0.04922 32936 ft 470 kts
2026-05-06 18:12 40.74946 0.06557 32764 ft 464 kts
2026-05-06 18:12 40.78113 0.07370 32493 ft 462 kts
2026-05-06 18:12 40.81278 0.08181 32170 ft 462 kts
2026-05-06 18:13 40.84381 0.08975 31934 ft 460 kts
2026-05-06 18:13 40.87502 0.09778 31567 ft 450 kts
2026-05-06 18:13 40.90539 0.10565 30717 ft 441 kts
2026-05-06 18:13 40.93536 0.11337 29695 ft 437 kts
2026-05-06 18:14 40.96505 0.12099 28714 ft 430 kts
2026-05-06 18:14 40.99451 0.12855 28311 ft 430 kts
2026-05-06 18:14 41.02418 0.13614 28183 ft 437 kts
2026-05-06 18:14 41.05392 0.14379 28007 ft 433 kts
2026-05-06 18:15 41.11204 0.15887 28013 ft 421 kts
2026-05-06 18:15 41.16943 0.17367 28030 ft 426 kts
2026-05-06 18:16 41.19831 0.18373 28001 ft 434 kts 20°
2026-05-06 18:16 41.22388 0.20561 28026 ft 444 kts 41°
2026-05-06 18:16 41.24313 0.23804 28017 ft 451 kts 61°
2026-05-06 18:16 41.25377 0.27723 28022 ft 452 kts 80°
2026-05-06 18:17 41.25508 0.31869 28008 ft 448 kts 100°
2026-05-06 18:17 41.24983 0.35932 28009 ft 445 kts 103°
2026-05-06 18:17 41.24408 0.39913 27453 ft 433 kts 103°
2026-05-06 18:17 41.23856 0.43801 26646 ft 425 kts 103°
2026-05-06 18:18 41.23338 0.47645 25704 ft 421 kts 102°
2026-05-06 18:18 41.22847 0.51476 24722 ft 419 kts 100°
2026-05-06 18:18 41.22628 0.55284 23762 ft 419 kts 89°
2026-05-06 18:18 41.22858 0.59120 22773 ft 414 kts 81°
2026-05-06 18:19 41.23447 0.62829 21945 ft 404 kts 74°
2026-05-06 18:19 41.24163 0.66397 21181 ft 394 kts 74°
2026-05-06 18:19 41.24871 0.69858 20532 ft 382 kts 74°
2026-05-06 18:19 41.25557 0.73213 19937 ft 370 kts 74°
2026-05-06 18:20 41.26218 0.76472 19273 ft 361 kts 74°
2026-05-06 18:20 41.26850 0.79621 18590 ft 354 kts 74°
2026-05-06 18:20 41.27474 0.82756 17833 ft 347 kts 74°
2026-05-06 18:20 41.28088 0.85849 16989 ft 343 kts 74°
2026-05-06 18:21 41.28691 0.88900 16309 ft 341 kts 75°
2026-05-06 18:21 41.29301 0.91997 16168 ft 349 kts 74°
2026-05-06 18:21 41.29918 0.95127 15990 ft 349 kts 75°
2026-05-06 18:21 41.30525 0.98221 15919 ft 341 kts 75°
2026-05-06 18:22 41.31116 1.01243 15920 ft 336 kts 75°
2026-05-06 18:22 41.31699 1.04225 15922 ft 337 kts 75°
2026-05-06 18:22 41.32292 1.07263 15938 ft 341 kts 75°
2026-05-06 18:22 41.32890 1.10336 15935 ft 343 kts 75°
2026-05-06 18:23 41.33489 1.13413 15914 ft 342 kts 75°
2026-05-06 18:23 41.34076 1.16437 15699 ft 331 kts 75°
2026-05-06 18:23 41.34643 1.19359 15177 ft 320 kts 75°
2026-05-06 18:23 41.35194 1.22204 14530 ft 315 kts 75°
2026-05-06 18:24 41.35737 1.25017 13807 ft 313 kts 75°
2026-05-06 18:24 41.36279 1.27825 13018 ft 311 kts 75°
2026-05-06 18:24 41.36814 1.30598 12275 ft 308 kts 75°
2026-05-06 18:24 41.37343 1.33345 11581 ft 304 kts 74°
2026-05-06 18:25 41.37860 1.36037 10893 ft 302 kts 74°
2026-05-06 18:25 41.38377 1.38733 10231 ft 299 kts 74°
2026-05-06 18:25 41.38889 1.41407 9580 ft 296 kts 74°
2026-05-06 18:25 41.39396 1.44048 8882 ft 292 kts 74°
2026-05-06 18:26 41.39894 1.46646 8243 ft 287 kts 74°
2026-05-06 18:26 41.40382 1.49201 7643 ft 282 kts 74°
2026-05-06 18:26 41.40871 1.51763 7166 ft 287 kts 75°
2026-05-06 18:26 41.41359 1.54324 6909 ft 284 kts 74°
2026-05-06 18:27 41.41845 1.56878 6560 ft 284 kts 75°
2026-05-06 18:27 41.42324 1.59396 6246 ft 284 kts 75°
2026-05-06 18:27 41.42803 1.61918 6094 ft 275 kts 74°
2026-05-06 18:27 41.43263 1.64349 6029 ft 267 kts 74°
2026-05-06 18:28 41.43717 1.66750 5996 ft 270 kts 75°
2026-05-06 18:28 41.44186 1.69229 6003 ft 280 kts 75°
2026-05-06 18:28 41.44665 1.71768 6006 ft 284 kts 75°
2026-05-06 18:28 41.45145 1.74315 5998 ft 282 kts 75°
2026-05-06 18:29 41.45618 1.76834 5982 ft 278 kts 75°
2026-05-06 18:29 41.46086 1.79321 5990 ft 276 kts 75°
2026-05-06 18:29 41.46552 1.81801 5991 ft 275 kts 75°
2026-05-06 18:29 41.47016 1.84274 5991 ft 275 kts 75°
2026-05-06 18:30 41.47480 1.86748 5999 ft 275 kts 75°
2026-05-06 18:30 41.47943 1.89224 5994 ft 274 kts 75°
2026-05-06 18:30 41.48395 1.91645 5982 ft 271 kts 75°
2026-05-06 18:30 41.48849 1.94078 5997 ft 270 kts 75°
2026-05-06 18:31 41.49304 1.96518 5998 ft 271 kts 75°
2026-05-06 18:31 41.49760 1.98967 6001 ft 272 kts 75°
2026-05-06 18:31 41.50217 2.01423 6001 ft 274 kts 75°
2026-05-06 18:31 41.50675 2.03891 6000 ft 274 kts 75°
2026-05-06 18:32 41.51133 2.06359 5987 ft 275 kts 75°
2026-05-06 18:32 41.51590 2.08830 5857 ft 273 kts 75°
2026-05-06 18:32 41.52025 2.11278 5631 ft 269 kts 79°
2026-05-06 18:32 41.52173 2.13784 5314 ft 272 kts 88°
2026-05-06 18:33 41.52199 2.16299 5104 ft 269 kts 88°
2026-05-06 18:33 41.52272 2.18758 4853 ft 267 kts 83°
2026-05-06 18:33 41.52584 2.21204 4587 ft 267 kts 78°
2026-05-06 18:33 41.52980 2.23650 4381 ft 265 kts 77°
2026-05-06 18:34 41.53381 2.26024 4135 ft 265 kts 77°
2026-05-06 18:34 41.53791 2.28392 4059 ft 257 kts 77°
2026-05-06 18:34 41.54122 2.30696 3986 ft 250 kts 92°
2026-05-06 18:34 41.53619 2.32845 4001 ft 243 kts 131°
2026-05-06 18:35 41.52271 2.34071 4002 ft 235 kts 170°
2026-05-06 18:35 41.50687 2.34043 4024 ft 230 kts 189°
2026-05-06 18:35 41.49080 2.33830 4007 ft 233 kts 186°
2026-05-06 18:35 41.47456 2.33670 3995 ft 235 kts 186°
2026-05-06 18:36 41.45827 2.33490 3996 ft 235 kts 187°
2026-05-06 18:36 41.44203 2.33292 3999 ft 234 kts 187°
2026-05-06 18:36 41.42587 2.33087 4001 ft 230 kts 187°
2026-05-06 18:36 41.41029 2.32888 3978 ft 219 kts 187°
2026-05-06 18:37 41.39545 2.32696 3981 ft 213 kts 189°
2026-05-06 18:37 41.38224 2.32014 4003 ft 202 kts 223°
2026-05-06 18:37 41.37415 2.30517 3921 ft 198 kts 244°
2026-05-06 18:37 41.36835 2.28859 3572 ft 198 kts 246°
2026-05-06 18:38 41.36284 2.27212 3296 ft 193 kts 246°
2026-05-06 18:38 41.35741 2.25597 2974 ft 190 kts 245°
2026-05-06 18:38 41.35199 2.23981 2646 ft 193 kts 245°
2026-05-06 18:38 41.34654 2.22364 2595 ft 190 kts 245°
2026-05-06 18:39 41.34107 2.20747 2530 ft 192 kts 245°
2026-05-06 18:39 41.33552 2.19110 2235 ft 197 kts 245°
2026-05-06 18:39 41.33025 2.17440 1854 ft 191 kts 246°
2026-05-06 18:40 41.31926 2.14253 936 ft 186 kts 241°
2026-05-06 18:40 41.31373 2.12717 480 ft 177 kts 245°
2026-05-06 18:40 41.30900 2.11297 208 ft 158 kts 243°
2026-05-06 18:40 41.30463 2.10055 27 ft 139 kts 243°
2026-05-06 18:41 41.30097 2.08983 24 ft 108 kts 245°
2026-05-06 18:41 41.29848 2.08259 27 ft 64 kts 246°
2026-05-06 18:41 41.29731 2.07971 25 ft 12 kts 225°
2026-05-06 18:41 41.29663 2.07898 26 ft 13 kts 217°
2026-05-06 18:42 41.29598 2.07838 26 ft 10 kts 206°
2026-05-06 18:42 41.29543 2.07823 30 ft 7 kts 185°
2026-05-06 18:42 41.29527 2.07838 27 ft 4 kts 118°
2026-05-06 18:42 41.29545 2.07914 27 ft 11 kts 68°
2026-05-06 18:43 41.29588 2.08056 25 ft 10 kts 68°
2026-05-06 18:43 41.29629 2.08171 23 ft 6 kts 64°
2026-05-06 18:43 41.29668 2.08278 24 ft 17 kts 64°
2026-05-06 18:43 41.29705 2.08387 23 ft 0 kts 65°
2026-05-06 18:44 41.29709 2.08428 26 ft 8 kts 101°
2026-05-06 18:44 41.29658 2.08489 26 ft 11 kts 167°
2026-05-06 18:44 41.29616 2.08442 20 ft 10 kts 242°
2026-05-06 18:44 41.29596 2.08382 21 ft 5 kts 245°
2026-05-06 18:45 41.29582 2.08339 23 ft 5 kts 249°
2026-05-06 18:45 41.29574 2.08294 22 ft 5 kts 262°
2026-05-06 18:45 41.29570 2.08247 20 ft 5 kts 261°
2026-05-06 18:45 41.29565 2.08217 20 ft 5 kts 255°
2026-05-06 18:46 41.29540 2.08133 21 ft 10 kts 242°
2026-05-06 18:46 41.29505 2.08041 25 ft 11 kts 246°
2026-05-06 18:46 41.29474 2.07940 29 ft 12 kts 247°
2026-05-06 18:46 41.29436 2.07831 30 ft 13 kts 245°
2026-05-06 18:47 41.29404 2.07741 30 ft 10 kts 244°
2026-05-06 18:47 41.29377 2.07661 26 ft 10 kts 245°
2026-05-06 18:47 41.29346 2.07591 27 ft 7 kts 221°
2026-05-06 18:47 41.29299 2.07587 27 ft 7 kts 163°
2026-05-06 18:48 41.29252 2.07613 28 ft 8 kts 156°
2026-05-06 18:48 41.29200 2.07647 28 ft 9 kts 156°
2026-05-06 18:48 41.29139 2.07655 25 ft 7 kts 189°
2026-05-06 18:48 41.29099 2.07662 24 ft 4 kts 161°
2026-05-06 18:49 41.29084 2.07670 25 ft 1 kts 157°
2026-05-06 18:49 41.29075 2.07675 26 ft 1 kts 156°
2026-05-06 18:49 41.29067 2.07679 26 ft 1 kts 156°
2026-05-06 18:49 41.29067 2.07680 26 ft 0 kts 156°